Hourly Weather Roundup
Issued by NWS Central Illinois

Home | Current Version | Previous Version | Graphics & Text | Print | Product List | Glossary On
Versions: 1 2 3 4 5 6 7 8 9 10 11 12 13 14 15 16 17 18 19 20 21 22 23 24 25 26 27 28 29 30 31 32 33 34 35 36 37 38 39 40 41 42 43 44 45 46 47 48 49 50
585
NZUS43 KILX 242110
HWRILX

AREA WEATHER ROUNDUP
NATIONAL WEATHER SERVICE, LINCOLN IL
400 PM CDT WED AUG 24 2016


CITY           SKY/WX    TMP DP  RH WIND       PRES   REMARKS
BLOOMINGTON    MOSUNNY   85  70  60 W13       29.99S HX  89
CHAMPAIGN      MOSUNNY   85  74  69 SW16G26   29.99S HX  92
DANVILLE       CLOUDY    86  77  72 SW16G25   29.95S HX  97
DECATUR        CLOUDY    89  73  59 W14       29.99F HX  97
EFFINGHAM      CLOUDY    89  77  66 SW9G18    30.02F HX 101
FLORA          CLOUDY    90  78  68 SW12      30.02F HX 105
GALESBURG      MOSUNNY   85  71  61 SW8       29.97S HX  90
JACKSONVILLE   MOSUNNY   85  76  74 W10       29.99S HX  93
LACON          MOSUNNY   84  68  58 W10       29.95S HX  87
LAWRENCEVILLE  MOSUNNY   90  77  65 SW15      30.03F HX 103
LITCHFIELD     MOSUNNY   88  72  60 SW7       30.01F HX  95
$$


CITY           SKY/WX    TMP DP  RH WIND       PRES   REMARKS
LINCOLN        SUNNY     88  73  60 W7        29.98S HX  95
MACOMB         CLOUDY    85  72  65 SW9G16    30.00F HX  90
MATTOON        MOSUNNY   86  74  67 SW10      30.01F HX  94
MT CARMEL AP   PTSUNNY   86  75  69 SW7       30.03F HX  95
OLNEY-NOBLE AP MOSUNNY   90  79  70 SW5       30.03F HX 105
PARIS          PTSUNNY   85  76  76 SW5       30.01F HX  94
PEORIA         SUNNY     85  69  58 W12       29.98R HX  89
PONTIAC        MOSUNNY   85  72  65 W17       29.97S HX  90
RANTOUL        MOSUNNY   86  77  73 W13G23    29.98S HX  96
ROBINSON       PTSUNNY   85  77  77 SW10G18   30.03F HX  96
SPRINGFIELD    CLOUDY    88  75  65 SW8       29.99S HX  97
TAYLORVILLE    PTSUNNY   85  75  72 W8G16     30.00F HX  93
$$

...REGIONAL REPORTS...


CITY           SKY/WX    TMP DP  RH WIND       PRES   REMARKS
CHICAGO O`HARE PTSUNNY   83  71  67 W14       29.91S HX  87
KANKAKEE       CLOUDY    85  71  63 W13G21    29.95S HX  90
MOLINE         SUNNY     87  69  54 W15       29.94F HX  91
MOUNT STERLING CLOUDY    87  74  64 SW9       29.99S HX  94
MOUNT VERNON   PTSUNNY   91  75  59 SW16      30.04S HX 102
PITTSFIELD     MOSUNNY   88  75  65 SW12      30.01S HX  97
QUINCY         CLOUDY    86  77  74 SW10      29.99F HX  97
ROCKFORD       MOSUNNY   85  73  67 W8        29.93S HX  91
$$


CITY           SKY/WX    TMP DP  RH WIND       PRES   REMARKS
BURLINGTON     CLOUDY    83  73  72 W10       29.97S HX  89
CEDAR RAPIDS   PTSUNNY   83  73  72 SW13      29.94S HX  89
DES MOINES     CLOUDY    84  72  67 W9        29.96S HX  89
KIRKSVILLE     LGT RAIN  81  72  74 VRB6      30.02S HX  85
OTTUMWA        PTSUNNY   83  70  64 SW10      29.96F HX  87
ST LOUIS       PTSUNNY   94  72  48 SW9       30.00F HX 102
$$


CITY           SKY/WX    TMP DP  RH WIND       PRES   REMARKS
TERRE HAUTE    RAIN      84  75  74 SW10      30.01F HX  92
EVANSVILLE     MOSUNNY   90  74  59 SW16      30.06F HX  99
INDIANAPOLIS   TSTM      80  75  84 N6        30.01R HX  85
LAFAYETTE      CLOUDY    85  76  74 SW17G25   29.93F HX  94
MADISON        PTSUNNY   82  71  69 SW9       29.90F HX  86
MILWAUKEE      CLOUDY    85  70  60 SW10      29.89F HX  89
$$






USA.gov is the U.S. government's official web portal to all federal, state and local government web resources and services.